Flag for Morocco Weather past 2 weeks in Tangier, Morocco

Now
57 °F

Broken clouds.


Feels Like: 52 °F
Forecast: 53 / 62 °F
Wind: 26 mph from West

Location: Tanger Aerodrome

Current Time: Jan 31, 2015 at 10:56:02 AM

Latest Report: Jan 31, 2015 at 10:30 AM


Visibility: 3 mi

Pressure: 29.89 "Hg

Humidity: 94%

Dew point: 55 °F

Location of TangierLocation

Historic Weather in Tangier — Graph

°F

Tangier temperature yesterday

Maximum temperature yesterday: 61 °F (at 2:00 PM)
Minimum temperature yesterday: 57 °F (at 12:30 AM)
Average temperature yesterday: 59 °F

Past Weeks' High & Low Weather Summary

 TemperatureHumidityPressure
High61 °F (Jan 25, 1:00 PM)94% (Jan 18, 10:30 PM)30.42 "Hg (Jan 18, 10:30 PM)
Low34 °F (Jan 25, 7:00 AM)41% (Jan 24, 2:30 PM)29.68 "Hg (Jan 19, 4:00 AM)
Average52 °F79%30.16 "Hg
* Reported Jan 16 10:00 AM — Jan 31 10:00 AM, Tangier, Weather by CustomWeather, © 2014

Note: Actual official high and low records may vary slightly from our data, if they occured in-between our weather recording intervals... More about our weather records

Advertising

Tangier weather history for previous 24 hours

 ConditionsComfort  
Time TempWeatherWind HumidityBarometerVisibility
10:00 AM
Jan 31
59 °FLight rain. Broken clouds.26 mph82%29.89 "Hg2 mi
9:30 AM59 °FBroken clouds.26 mph82%29.89 "Hg4 mi
9:00 AM59 °FBroken clouds.25 mph82%29.89 "Hg4 mi
8:30 AM57 °FLight rain. Broken clouds.24 mph94%29.89 "Hg2 mi
8:00 AM57 °FLight rain. Broken clouds.25 mph88%29.86 "Hg2 mi
7:30 AM57 °FBroken clouds.24 mph88%29.86 "Hg4 mi
7:00 AM57 °FBroken clouds.28 mph82%29.86 "Hg4 mi
6:30 AM57 °FBroken clouds.26 mph82%29.86 "Hg4 mi
6:00 AM57 °FPartly cloudy.29 mph82%29.86 "Hg4 mi
5:30 AM57 °FPartly cloudy.28 mph88%29.86 "Hg2 mi
5:00 AM57 °FPartly cloudy.26 mph94%29.86 "Hg4 mi
4:00 AM59 °FPartly cloudy.22 mph88%29.86 "Hg3 mi
3:00 AM59 °FPartly cloudy.25 mph88%29.89 "Hg2 mi
2:30 AM59 °FPartly cloudy.24 mph94%29.89 "Hg2 mi
2:00 AM59 °FPartly cloudy.23 mph94%29.92 "Hg3 mi
1:30 AM59 °FPartly cloudy.23 mph94%29.92 "Hg1 mi
1:00 AM59 °FPartly cloudy.24 mph94%29.95 "Hg3 mi
12:00 AM59 °FPartly cloudy.23 mph94%29.95 "Hg3 mi
11:30 PM
Jan 30
59 °FPartly cloudy.23 mph94%29.95 "Hg3 mi
11:00 PM59 °FPartly cloudy.23 mph94%29.95 "Hg3 mi
10:30 PM59 °FPartly cloudy.21 mph94%29.95 "Hg3 mi
10:00 PM59 °FLight rain. Partly cloudy.21 mph94%29.98 "Hg2 mi
9:30 PM59 °FLight rain. Partly cloudy.21 mph94%29.98 "Hg2 mi
9:00 PM59 °FLight rain. Partly cloudy.22 mph94%29.98 "Hg2 mi
8:30 PM59 °FLight rain. Partly cloudy.18 mph94%29.98 "Hg2 mi
8:00 PM59 °FLight rain. Partly cloudy.22 mph94%29.98 "Hg2 mi
7:30 PM59 °FPartly cloudy.20 mph94%29.98 "Hg3 mi
7:00 PM59 °FLight rain. Partly cloudy.21 mph94%29.98 "Hg2 mi
6:30 PM59 °FLight rain. Partly cloudy.21 mph94%29.98 "Hg2 mi
6:00 PM59 °FLight rain. Partly cloudy.22 mph94%29.98 "Hg2 mi
5:30 PM59 °FPartly cloudy.22 mph94%29.98 "Hg3 mi
5:00 PM59 °FLight rain. Partly cloudy.20 mph94%29.98 "Hg2 mi
4:30 PM59 °FBroken clouds.21 mph94%29.98 "Hg3 mi
4:00 PM59 °FBroken clouds.21 mph94%29.98 "Hg3 mi
3:30 PM59 °FBroken clouds.20 mph94%29.98 "Hg3 mi
3:00 PM59 °FBroken clouds.22 mph94%30.01 "Hg4 mi
2:30 PM59 °FBroken clouds.23 mph94%30.01 "Hg4 mi
2:00 PM61 °FPartly sunny.22 mph88%30.01 "Hg4 mi
1:30 PM59 °FPartly sunny.20 mph94%30.04 "Hg4 mi
1:00 PM59 °FPartly sunny.20 mph94%30.04 "Hg4 mi
12:00 PM59 °FFog.18 mph94%30.07 "Hg1 mi
11:30 AM59 °FLight rain. Broken clouds.18 mph94%30.09 "Hg2 mi
11:00 AM59 °FLight rain. Broken clouds.18 mph94%30.09 "Hg2 mi
10:30 AM59 °FLight rain. Broken clouds.18 mph94%30.09 "Hg2 mi
10:00 AM59 °FLight rain. Broken clouds.20 mph88%30.09 "Hg2 mi
Weather by CustomWeather, © 2014

See weather overviewHow to use our weather pages